This demonstration page uses our WeatherBlox Daily Observations layout. Learn more.

41.55636, -103.73856

Hourly Observations for November 12, 2015

Temp ( °F °C ) Dew Point ( °F °C ) Humidity (%) Winds ( mph kmh ) Pressure ( in mb ) Visibility ( mi km ) Precip ( " mm )
12:53 am 00:53 Clear 35 1.7 22 -5.6 59 59 W 10 17 30.11 1020 10 16.0934 0 0
1:53 am 01:53 Clear 35 1.7 22 -5.6 59 59 WNW 12 19 30.12 1020 10 16.0934 0 0
2:53 am 02:53 Clear 30 -1.1 21 -6.1 69 69 NW 6 9 30.16 1021 10 16.0934 0 0
3:53 am 03:53 Clear 30 -1.1 21 -6.1 69 69 NNW 8 13 30.18 1022 10 16.0934 0 0
4:53 am 04:53 Clear 31 -0.6 21 -6.1 67 67 NNW 10 17 30.21 1023 10 16.0934 0 0
5:53 am 05:53 Clear 31 -0.6 21 -6.1 67 67 WNW 9 15 30.24 1024 10 16.0934 0 0
6:53 am 06:53 Sunny 27 -2.8 20 -6.7 75 75 WNW 8 13 30.27 1025 10 16.0934 0 0
7:53 am 07:53 Sunny 32 0 22 -5.6 66 66 NNW 5 7 30.29 1026 10 16.0934 0 0
8:53 am 08:53 Sunny 38 3.3 21 -6.1 51 51 WNW 7 11 30.29 1026 10 16.0934 0 0
9:53 am 09:53 Cloudy 43 6.1 18 -7.8 37 37 NW 12 19 30.29 1026 10 16.0934 0 0
10:53 am 10:53 Sunny 45 7.2 16 -8.9 31 31 WNW 12 19 30.27 1025 10 16.0934 0 0
11:53 am 11:53 Mostly Cloudy 47 8.3 17 -8.3 30 30 NNW 10 17 30.25 1025 10 16.0934 0 0
12:53 pm 12:53 Partly Cloudy 47 8.3 18 -7.8 31 31 NW 8 13 30.24 1024 10 16.0934 0 0
1:53 pm 13:53 Mostly Sunny 48 8.9 19 -7.2 32 32 NNW 8 13 30.22 1023 10 16.0934 0 0
2:53 pm 14:53 Sunny 47 8.3 20 -6.7 34 34 NW 7 11 30.24 1024 10 16.0934 0 0
3:53 pm 15:53 Mostly Sunny 46 7.8 22 -5.6 38 38 W 12 19 30.24 1024 10 16.0934 0 0
4:53 pm 16:53 Clear 37 2.8 21 -6.1 52 52 N 6 9 30.27 1025 10 16.0934 0 0
5:53 pm 17:53 Clear 30 -1.1 19 -7.2 64 64 NE 5 7 30.3 1026 10 16.0934 0 0
6:53 pm 18:53 Clear 30 -1.1 19 -7.2 64 64 SW 3 6 30.31 1027 10 16.0934 0 0
7:53 pm 19:53 Clear 27 -2.8 18 -7.8 69 69 ESE 8 13 30.3 1026 10 16.0934 0 0
8:53 pm 20:53 Clear 26 -3.3 18 -7.8 71 71 ENE 6 9 30.29 1026 10 16.0934 0 0
9:53 pm 21:53 Clear 26 -3.3 18 -7.8 71 71 ENE 6 9 30.26 1025 10 16.0934 0 0
10:53 pm 22:53 Clear 24 -4.4 18 -7.8 77 77 NE 3 6 30.26 1025 10 16.0934 0 0
11:53 pm 23:53 Clear 23 -5 18 -7.8 81 81 ENE 3 6 30.24 1024 10 16.0934 0 0

Powered by AerisWeather